Home   Weather   United Kingdom   Warrington   Past weeks
Flag for United Kingdom

Past Weather in Warrington, England, United Kingdom — Yesterday and Last 2 Weeks

Currently: 50 °F. Passing clouds. (Weather station: Liverpool Airport, United Kingdom). See more current weather

Past Weather in Warrington — Graph

°F

Warrington Temperature Yesterday

Maximum temperature yesterday: 59 °F (at 1:20 pm)
Minimum temperature yesterday: 52 °F (at 12:50 am)
Average temperature yesterday: 54 °F

High & Low Weather Summary for the Past Weeks

 TemperatureHumidityPressure
High66 °F (Oct 19, 12:50 pm)100% (Oct 13, 12:20 am)30.48 "Hg (Oct 13, 12:20 am)
Low41 °F (Oct 16, 3:20 am)47% (Oct 21, 3:20 pm)29.33 "Hg (Oct 20, 12:50 pm)
Average55 °F83%30.02 "Hg
* Reported Oct 10 6:20 pm — Oct 25 6:50 pm, Warrington. Weather by CustomWeather, © 2021

Note: Actual official high and low records may vary slightly from our data, if they occured in-between our weather recording intervals... More about our weather records

Warrington Weather History for the Previous 24 Hours

Scroll right to see more
 ConditionsComfort  
Time TempWeatherWind HumidityBarometerVisibility
6:50 pm
Mon, Oct 25
52 °FPassing clouds.9 mph82%29.92 "HgN/A
6:20 pm54 °FPassing clouds.10 mph77%29.89 "HgN/A
5:50 pm54 °FPassing clouds.10 mph77%29.89 "HgN/A
5:20 pm55 °FScattered clouds.10 mph72%29.89 "HgN/A
4:50 pm55 °FScattered clouds.13 mph72%29.89 "HgN/A
4:20 pm57 °FScattered clouds.15 mph67%29.89 "HgN/A
3:50 pm57 °FScattered clouds.17 mph63%29.89 "HgN/A
3:20 pm55 °FScattered clouds.18 mph67%29.89 "HgN/A
2:50 pm57 °FScattered clouds.10 mph67%29.86 "HgN/A
1:50 pm59 °FScattered clouds.10 mph63%29.89 "HgN/A
1:20 pm57 °FScattered clouds.10 mph67%29.89 "HgN/A
12:50 pm57 °FScattered clouds.9 mph72%29.89 "HgN/A
12:20 pm55 °FScattered clouds.9 mph72%29.89 "HgN/A
11:50 am55 °FScattered clouds.12 mph77%29.89 "HgN/A
11:20 am55 °FPassing clouds.10 mph77%29.86 "HgN/A
10:50 am54 °FPassing clouds.12 mph82%29.86 "HgN/A
10:20 am52 °FPassing clouds.9 mph88%29.86 "HgN/A
9:50 am52 °FPassing clouds.10 mph88%29.86 "HgN/A
9:20 am52 °FPassing clouds.9 mph94%29.86 "HgN/A
8:50 am52 °FPassing clouds.7 mph88%29.86 "HgN/A
8:20 am50 °FSunny.10 mph94%29.83 "Hg10 mi
7:50 am50 °FClear.10 mph94%29.83 "Hg10 mi
7:20 am50 °FPassing clouds.9 mph94%29.83 "HgN/A
6:50 am50 °FPassing clouds.7 mph94%29.83 "HgN/A
6:20 am52 °FPassing clouds.8 mph94%29.83 "HgN/A
5:50 am52 °FLight rain. Passing clouds.7 mph94%29.83 "HgN/A
5:20 am52 °FPassing clouds.9 mph94%29.83 "HgN/A
4:50 am50 °FPassing clouds.10 mph94%29.83 "HgN/A
4:20 am52 °FPassing clouds.10 mph88%29.83 "HgN/A
3:50 am52 °FPassing clouds.12 mph94%29.83 "HgN/A
3:20 am52 °FPartly cloudy.9 mph94%29.83 "HgN/A
2:50 am52 °FPassing clouds.9 mph94%29.83 "HgN/A
2:20 am54 °FPassing clouds.9 mph88%29.83 "HgN/A
1:50 am52 °FClear.12 mph88%29.83 "Hg10 mi
1:20 am50 °FClear.12 mph94%29.83 "Hg10 mi
12:50 am52 °FClear.12 mph88%29.83 "Hg10 mi
12:20 am52 °FClear.12 mph94%29.83 "Hg10 mi
11:50 pm
Sun, Oct 24
52 °FClear.14 mph94%29.83 "Hg10 mi
11:20 pm52 °FClear.10 mph94%29.83 "Hg10 mi
10:50 pm52 °FClear.10 mph94%29.83 "Hg10 mi
10:20 pm54 °FClear.13 mph88%29.83 "Hg10 mi
9:50 pm54 °FClear.10 mph88%29.83 "Hg10 mi
9:20 pm54 °FClear.9 mph88%29.83 "Hg10 mi
8:50 pm54 °FClear.9 mph94%29.83 "Hg10 mi
8:20 pm54 °FClear.8 mph88%29.86 "Hg10 mi
Weather by CustomWeather, © 2021

See weather overview